Location: Occidental Observatory
(38.4214°N, 122.9202°W)
Time: 09:42:07
(UTC-07:00)

Daily predictions for brighter satellites

Satellite Brightness Start Highest point End
(mag) Time Altitude Azimuth Time Altitude Azimuth Time Altitude Azimuth
Cosmos 1633 Rocket 3.3 20:55:20 10° S 20:59:43 79° W 21:04:09 10° N
Cosmos 2082 Rocket 2.3 20:54:12 10° NNW 20:59:52 73° ENE 21:05:31 10° SSE
YAOGAN 6 3.7 20:58:05 10° SE 21:01:19 29° ENE 21:04:34 10° NNE
Spot 2 Rocket 3.7 20:57:16 10° S 21:02:20 76° WSW 21:07:29 10° NNW
Timation 2 Rocket 4.5 20:56:38 10° NNW 21:02:42 47° ENE 21:08:59 10° SE
CZ-2D R/B 4.2 21:00:03 10° S 21:03:49 50° W 21:07:38 10° NNW
Tiangong 2 2.6 21:01:06 10° WNW 21:04:06 35° N 21:07:06 10° ENE
Cosmos 724 4.4 20:58:26 10° SSW 21:04:31 63° ESE 21:10:36 10° NE
In-Cosmos 22 Rocket 4.4 20:59:20 10° S 21:04:55 56° E 21:10:37 10° NNE
USA 238 DEB 4.0 20:59:16 10° SW 21:06:12 75° NW 21:13:13 10° NNE
USA 238 4.0 20:59:22 10° SW 21:06:19 76° NW 21:13:20 10° NNE
H-2A ROCKET BODY 2.8 21:05:11 10° SSW 21:07:13 19° SSE 21:11:05 10° ESE
ERS-1 Rocket 4.2 21:03:48 10° ESE 21:07:57 26° ENE 21:12:05 10° NNE
GPS 2-04 Rocket1 3.4 21:07:57 10° SW 21:11:09 28° SSE 21:14:15 10° E
Cosmos 1939 Rocket 3.0 21:07:07 10° SSE 21:11:12 63° ENE 21:15:18 10° N
OAO 2 Rocket 3.5 21:08:40 10° W 21:13:36 56° S 21:18:24 10° ESE
Sich 1 4.4 21:10:06 10° SSW 21:14:11 42° W 21:18:20 10° N
Cosmos 1933 3.4 21:11:41 10° N 21:15:41 63° E 21:19:38 10° SSE
Cosmos 1933 Rocket 3.5 21:11:30 10° S 21:15:46 66° E 21:20:04 10° NNE
Cosmos 2297 4.5 21:11:35 10° SW 21:17:08 57° WNW 21:22:42 10° NNE
Cosmos 1833 Rocket 2.8 21:11:47 10° NNW 21:17:28 84° WSW 21:23:05 10° SSE
Meteor 2-10 Rocket 3.8 21:12:30 10° N 21:18:20 76° E 21:24:08 10° SSE
Cosmos 1892 3.3 21:16:16 10° SSE 21:19:51 38° E 21:23:27 10° NNE
Cosmos 1862 Rocket 3.7 21:16:08 10° N 21:20:36 64° E 21:25:03 10° SSE
Cosmos 1816 Rocket 4.5 21:17:22 10° S 21:23:28 65° E 21:29:33 10° NNE
Cosmos 2112 Rocket 4.4 21:18:27 10° NNW 21:23:46 67° WSW 21:29:04 10° S
NOSS 3-2 (A) 3.4 21:19:25 10° SSW 21:25:19 77° ESE 21:31:48 10° NE
Cosmos 1680 Rocket 4.3 21:21:49 10° NNW 21:26:59 53° WSW 21:32:07 10° S
Cosmos 1346 Rocket 3.5 21:24:39 10° N 21:28:20 36° ENE 21:31:10 15° SE
Helios 1B rocket 2.3 21:24:28 10° NNE 21:28:35 75° ESE 21:32:40 10° S
Cosmos 858 Rocket 4.4 21:23:27 10° SSW 21:28:37 80° ESE 21:33:50 10° NNE
Envisat 3.5 21:24:01 10° S 21:29:03 63° W 21:34:05 10° NNW
Aurora 2 Rocket 4.4 21:27:26 10° SW 21:29:14 12° SSW 21:30:53 10° S
Cosmos 1898 Rocket 3.6 21:24:03 10° SSW 21:29:20 86° WNW 21:34:41 10° NNE
Spot 1 4.3 21:30:07 10° SSE 21:34:45 80° ENE 21:39:40 10° N
USA 186 4.1 21:34:29 10° SW 21:36:09 16° W 21:37:56 10° NW
COSMOS 2487 2.9 21:34:54 10° NNW 21:38:25 62° WSW 21:41:41 11° S
USA 215 3.4 21:33:00 14° ESE 21:38:46 68° NE 21:45:17 10° NW
CZ-4B DEB 2.4 21:37:26 16° SSE 21:39:40 80° ENE 21:42:36 10° N
Cosmos 990 Rocket 3.9 21:36:36 10° S 21:41:45 76° ESE 21:46:59 10° NNE
NOSS 3-2 (C) 3.4 21:37:29 10° SSW 21:43:24 78° ESE 21:49:54 10° NE
NOAA 11 4.3 21:39:18 14° SSE 21:43:53 59° ENE 21:49:16 10° N
Helios 1A 3.3 21:40:03 10° S 21:44:11 66° WSW 21:48:22 10° NNW
Cosmos 2346 Rocket 4.4 21:40:02 10° S 21:46:02 76° E 21:52:06 10° N
Cosmos 1943 Rocket 3.3 21:47:03 19° SE 21:48:58 22° E 21:53:12 10° NE
H-2A R/B 3.2 21:46:32 18° ESE 21:49:36 29° ENE 21:54:11 10° N
MetOp-A 4.3 21:45:56 17° SE 21:49:55 56° ENE 21:55:09 10° N
Cosmos 1606 4.1 21:49:32 10° NNE 21:52:30 21° ENE 21:53:21 20° E
EO 1 Delta rocket 4.4 21:49:46 12° S 21:54:41 90° W 22:01:16 10° N
Cosmos 2369 Rocket 2.4 21:49:56 10° S 21:55:18 48° ESE 22:00:45 10° NE
Cosmos 1703 Rocket 3.7 21:52:39 10° N 21:57:02 58° E 21:59:31 24° SSE
Shenzhou-11 Module 2.8 21:54:47 10° WNW 21:57:47 47° NNE 21:59:22 23° ENE
Cosmos 1782 3.8 21:56:07 10° NNE 21:59:43 31° ENE 22:00:50 26° ESE
Meteor 1-29 4.0 21:57:22 10° N 22:00:46 47° WNW 22:04:07 10° SSW
Okean 1-7 3.6 21:56:46 10° N 22:00:58 42° E 22:02:47 28° SE
Hubble Space Telescope 2.7 22:03:06 10° SW 22:05:24 15° SSW 22:05:39 14° S
CENTAUR R/B 2.8 22:06:43 11° S 22:11:56 42° ESE 22:18:03 10° NE
Cosmos 1937 Rocket 4.5 22:08:00 10° SW 22:12:56 47° WNW 22:17:55 10° N
ISS -1.5 22:10:37 10° SSW 22:11:08 14° SSW 22:11:08 14° SSW
Cosmos 2221 Rocket 3.6 22:09:37 10° N 22:14:01 62° E 22:15:47 34° SSE
Cosmos 1869 Rocket 3.4 22:11:46 20° S 22:14:41 83° E 22:19:02 10° N
Meteor 2-3 Rocket 4.3 22:10:00 10° SSW 22:15:39 59° WNW 22:21:17 10° N
Milstar 3 3.8 22:09:25 10° SW 22:18:28 32° S 22:20:57 26° SE
COSMOS 2455 2.8 22:14:51 10° SSW 22:20:51 86° ESE 22:26:55 10° NNE
DMSP B5D2-2 4.4 22:22:03 10° NNE 22:27:00 43° E 22:28:19 36° SE
Cosmos 1634 Rocket 4.4 22:26:28 10° NNW 22:32:40 63° W 22:37:22 18° S
SPOT 5 3.1 22:30:24 31° S 22:33:02 86° WSW 22:38:25 10° NNW
ATLAS 5 CENTAUR R/B 3.5 22:27:55 10° NNW 22:33:16 33° NE 22:36:19 22° E
GEOS 3 Rocket 3.9 22:32:32 34° ESE 22:34:33 55° NE 22:39:39 10° NNW
YAOGAN 11 4.2 22:33:53 39° S 22:35:34 82° WSW 22:40:08 10° NNW
Cosmos 1900 4.4 22:30:54 10° NNW 22:36:05 81° WSW 22:37:52 42° SSE
Terra 2.6 22:36:29 33° E 22:37:19 36° ENE 22:41:39 10° N
Nimbus 7 Rocket 4.3 22:31:29 10° NNE 22:37:24 76° ESE 22:40:49 26° S
Tiangong 2 1.4 22:38:07 10° WNW 22:41:06 64° N 22:41:06 64° N
Cosmos 158 Rocket 4.1 22:37:25 10° N 22:42:14 54° ENE 22:43:12 46° ESE
CARTOSAT-1 4.2 22:42:31 38° E 22:42:50 38° ENE 22:46:51 10° N
Cosmos 1048 Rocket 4.2 22:38:28 10° N 22:43:44 56° ENE 22:45:01 44° ESE
ERS-1 Rocket 4.3 22:43:12 16° SSW 22:46:32 34° W 22:51:06 10° NNW
ARGOS 3.6 22:44:06 27° SSW 22:46:52 55° W 22:52:09 10° NNW
SPOT 1/Viking Rocket 3.5 22:45:28 42° S 22:47:17 85° WSW 22:52:31 10° NNW
Cosmos 1825 2.5 22:47:24 47° SW 22:48:13 62° W 22:51:59 10° N
Nadezhda 4 Rocket 4.1 22:46:21 40° SE 22:48:18 57° E 22:54:21 10° NNE
GPS 2-04 Rocket1 3.9 22:47:06 10° WSW 22:48:55 27° WSW 22:48:55 27° WSW
Lacrosse 5 rocket 1.2 22:55:15 65° N 22:55:15 65° N 22:58:32 10° NE
SL-08 RB Rocket 4.4 22:53:17 35° SSW 22:54:53 51° W 22:59:26 10° NNW
Cosmos 1656 Rocket 4.4 22:56:17 34° E 22:56:17 34° E 23:00:34 10° NE
Cosmos 2084 3.1 22:52:38 10° NNW 22:56:22 81° NNE 22:56:22 81° NNE
OAO 2 Rocket 4.4 22:53:39 10° W 22:57:21 29° SW 22:57:21 29° SW
H-2A R/B 2.9 23:00:49 35° ENE 23:00:49 35° ENE 23:04:12 10° N
Cosmos 1408 4.1 23:02:39 28° WSW 23:03:40 34° WNW 23:07:06 10° NNW
Cosmos 1269 Rocket 3.9 23:04:48 10° NNW 23:10:07 90° NNW 23:10:52 67° SSE
Intercosmos 25 Rocket 4.2 23:08:32 10° N 23:16:34 87° E 23:17:35 62° SSE
Lacrosse 4 Rocket 2.0 23:14:19 10° NNW 23:18:27 53° NE 23:18:27 53° NE
Cosmos 1908 Rocket 4.4 23:21:27 40° NE 23:21:27 40° NE 23:24:41 10° NNE
CZ-2C R/B 4.5 23:17:44 10° NE 23:19:38 16° ENE 23:19:38 16° ENE
USA 215 4.3 23:20:21 28° SSW 23:22:00 32° SW 23:27:45 10° WNW
Cosmos 1340 4.1 23:24:24 10° NNW 23:27:28 32° W 23:27:28 32° W
H-2A R/B 3.3 23:27:10 28° SW 23:28:51 34° W 23:33:44 10° NNW
Meteor 1-27 Rocket 4.2 23:25:07 10° NNW 23:30:46 55° W 23:31:59 46° SW
Cosmos 1943 Rocket 3.1 23:28:29 18° SW 23:32:21 46° WNW 23:37:42 10° N
Cosmos 2344 3.7 23:26:09 10° SW 23:33:48 76° NW 23:42:15 10° NNE
deb Chang Zheng 4 4.0 23:29:24 10° NNE 23:33:03 60° NNE 23:33:03 60° NNE
Sich 1 Rocket 4.3 23:37:00 48° NNE 23:37:00 48° NNE 23:40:20 10° NNE
Cosmos 1833 4.1 23:31:16 10° NNW 23:37:04 82° WSW 23:37:28 76° SSW
Cosmos 2195 Rocket 4.4 23:36:54 64° ESE 23:37:26 67° E 23:43:44 10° NNE
Cosmos 2369 Rocket 4.3 23:35:04 10° WSW 23:39:34 24° NW 23:44:07 10° N
Okean 3 4.3 23:40:51 10° N 23:43:52 47° N 23:43:52 47° N
ARGOS Delta rocket 4.3 23:44:53 10° NNE 23:48:21 52° NNE 23:48:21 52° NNE
